Tracking 19638 objects as of 20-May-2019
HD Live streaming from Space Station
objects crossing your sky now

OPS 6063

Track OPS 6063 now!
OPS 6063 is classified as:


NORAD ID: 6380
Int'l Code: 1973-013A
Perigee: 35,696.2 km
Apogee: 35,891.1 km
Inclination: 6.7 °
Period: 1,436.1 minutes
Semi major axis: 42164 km
RCS: Unknown
Launch date: March 6, 1973
Source: United States (US)
Launch site: AIR FORCE EASTERN TEST RANGE (AFETR)
aabbcc
Your satellite tracking list
Your tracking list is empty




NASA's NSSDC Master Catalog

Two Line Element Set (TLE):
1  6380U 73013A   19137.97023453 -.00000091  00000-0  00000+0 0  9995
2  6380   6.7479 298.1187 0023120 178.7297 181.1873  1.00272113   463
Source of the keplerian elements: McCants